Temperature
7 7 6 6 6 6 5 5 4 4 4 5 5 5 5 5 5 5 5 5 5 5 5 5 5 5 5 5 4 4 4 4 4 4 4 4 4 4
6 6 6 6 5 5 5 5 4 4 4 4 5 5 5 4 4 4 4 4 4 4 4 4 4 4 4 4 4 4 4 4 3 3 3 3 4 4
6 5 5 5 5 5 5 4 4 4 3 4 4 4 4 4 4 4 4 4 4 4 4 4 4 4 3 3 3 3 3 3 3 3 3 3 3 3
5 5 5 5 4 4 4 4 4 4 3 3 3 3 4 3 3 3 3 3 3 3 3 3 3 3 3 3 3 3 3 2 2 2 2 2 2 3
5 4 4 4 4 4 4 4 3 3 3 3 3 3 3 3 3 3 3 3 3 3 3 3 3 3 2 2 2 2 2 2 2 2 2 2 2 2
4 4 4 3 3 3 3 3 3 3 2 2 2 2 2 2 2 2 3 3 3 3 2 2 2 2 2 2 2 2 2 2 2 2 1 1 1 1
4 3 3 3 3 2 2 2 2 2 2 2 2 2 2 2 2 2 2 2 2 2 2 2 2 2 2 2 2 1 1 1 1 1 1 1 1 1
3 3 3 3 2 2 2 2 2 1 1 1 1 1 2 1 1 1 1 1 1 1 1 2 1 1 1 1 1 1 1 1 0 0 0 0 0 0
3 3 2 2 2 2 2 1 1 1 1 1 1 1 1 1 0 0 0 0 0 0 0 1 1 1 1 1 1 0 0 0 0 -0 -0 -0 -0 -0
2 2 2 2 2 1 1 1 1 1 1 1 0 0 0 0 -0 -0 -0 -0 -0 -0 -1 -0 0 0 0 0 0 0 -0 -0 -0 -1 -1 -1 -1 -1
2 2 1 1 1 1 0 1 1 1 0 0 0 0 -0 -0 -0 -1 -1 -1 -1 -0 -1 -1 -1 -1 -0 -0 -0 -0 -1 -1 -1 -1 -1 -1 -1 -1
2 1 1 1 1 0 -0 -0 -0 0 -0 -0 -0 -0 -0 -0 -1 -1 -1 -2 -2 -2 -1 -2 -2 -2 -2 -1 -1 -1 -1 -1 -2 -2 -2 -2 -2 -1
1 1 1 0 0 -0 -0 -0 -0 -1 -1 -1 -1 -1 -0 -1 -1 -1 -1 -2 -2 -2 -2 -3 -3 -3 -3 -3 -2 -2 -2 -2 -2 -2 -2 -2 -2 -2
1 0 0 -0 -0 -0 -1 -1 -1 -1 -1 -1 -1 -1 -1 -1 -1 -1 -2 -2 -2 -2 -3 -3 -3 -3 -4 -4 -3 -3 -3 -3 -3 -3 -3 -3 -3 -3
0 -0 -0 -0 -1 -1 -1 -1 -1 -2 -2 -2 -2 -1 -1 -2 -2 -2 -2 -2 -2 -2 -3 -3 -4 -4 -4 -4 -4 -4 -3 -3 -3 -3 -3 -3 -3 -3
-1 -1 -1 -1 -1 -1 -1 -2 -2 -2 -2 -2 -2 -2 -2 -2 -2 -2 -3 -3 -3 -3 -3 -3 -4 -4 -4 -4 -5 -4 -4 -4 -4 -4 -4 -4 -3 -3
-1 -1 -1 -1 -1 -1 -2 -2 -2 -2 -2 -2 -2 -2 -2 -2 -3 -3 -3 -3 -4 -4 -3 -3 -4 -4 -5 -5 -5 -5 -5 -4 -4 -4 -4 -4 -4 -4
-2 -2 -2 -2 -2 -2 -2 -2 -2 -2 -3 -3 -3 -3 -3 -3 -3 -3 -4 -4 -4 -4 -4 -4 -4 -5 -5 -5 -5 -5 -5 -5 -5 -5 -5 -5 -4 -4
-2 -2 -2 -3 -3 -3 -3 -3 -3 -3 -3 -3 -3 -3 -3 -4 -4 -4 -4 -5 -5 -5 -5 -5 -5 -5 -5 -6 -5 -5 -5 -5 -5 -5 -5 -5 -5 -4
-3 -3 -3 -3 -3 -3 -3 -3 -3 -3 -3 -3 -3 -4 -4 -4 -4 -4 -5 -5 -5 -5 -5 -5 -5 -5 -6 -6 -6 -5 -6 -6 -6 -6 -5 -5 -5 -5
-3 -3 -3 -3 -4 -4 -4 -4 -4 -4 -4 -4 -4 -4 -4 -5 -5 -5 -5 -5 -6 -6 -5 -5 -5 -6 -6 -6 -6 -6 -6 -6 -6 -6 -6 -6 -6 -5
-4 -4 -4 -4 -4 -4 -4 -4 -4 -4 -4 -4 -4 -4 -5 -5 -5 -6 -6 -6 -6 -6 -6 -6 -6 -6 -6 -6 -6 -6 -6 -6 -6 -6 -6 -6 -7 -6
-4 -4 -4 -4 -4 -4 -4 -4 -5 -5 -5 -5 -5 -5 -5 -5 -6 -6 -6 -6 -6 -6 -6 -6 -6 -6 -6 -6 -6 -6 -6 -6 -6 -6 -6 -6 -6 -6
Wind_Speed
3 3 2 2 2 2 2 3 3 3 4 4 3 2 4 5 7 6 7 9 10 10 10 11 10 11 11 11 11 11 11 11 11 10 10 10 11 11
3 4 3 2 2 2 3 3 3 4 5 3 4 3 4 6 8 7 8 10 10 11 11 11 11 11 12 12 12 11 11 11 11 11 11 11 11 12
3 4 4 3 3 3 3 3 3 3 6 5 3 3 3 4 6 7 8 9 9 11 12 12 12 12 12 12 12 11 11 11 11 10 11 11 12 12
4 4 4 3 4 3 3 4 4 4 5 7 5 4 4 4 5 5 7 8 9 11 13 13 13 12 12 12 12 11 11 11 11 11 11 11 12 13
4 5 5 4 5 4 4 4 4 4 4 5 6 4 4 3 4 5 5 5 8 10 11 12 13 13 13 13 12 12 11 11 11 11 11 11 12 13
5 5 5 5 6 5 5 5 4 4 4 5 6 5 4 4 3 4 5 4 5 6 9 10 11 12 13 13 12 12 12 12 12 11 11 12 12 13
5 5 6 7 8 7 5 5 5 4 4 5 6 5 5 4 4 4 5 6 5 4 4 5 5 6 8 11 11 11 11 11 11 11 12 12 13 13
5 5 6 7 8 10 10 9 7 6 6 6 6 7 7 6 5 5 5 5 5 3 3 5 4 6 6 8 11 12 11 11 12 12 12 13 13 13
6 5 5 5 7 5 8 10 9 11 11 8 8 9 8 6 5 6 6 6 7 4 3 6 4 6 6 9 12 12 12 12 12 13 13 13 13 13
6 6 6 6 6 6 5 6 7 7 9 7 8 9 8 7 6 7 7 6 6 4 3 5 4 5 5 7 11 12 12 12 12 13 14 14 13 13
6 6 6 7 10 10 6 7 8 7 9 12 12 12 14 13 9 4 4 5 6 5 3 3 4 5 5 5 7 9 10 11 12 13 13 14 13 12
5 6 9 10 11 11 7 7 9 8 6 6 7 9 8 9 11 7 6 6 5 5 3 3 3 3 4 3 3 4 6 9 11 12 13 13 12 8
5 5 6 11 12 12 10 8 11 10 6 6 6 6 5 5 5 5 5 6 6 6 4 3 3 3 4 5 4 4 4 4 6 8 11 12 11 8
6 5 6 11 12 13 10 11 14 11 5 5 5 6 5 5 5 5 6 7 7 8 6 5 4 4 5 6 6 3 3 4 5 5 6 9 10 11
6 9 10 12 12 9 11 13 10 6 5 6 7 7 5 5 4 3 4 5 5 7 8 7 5 5 5 6 6 5 5 4 4 4 4 5 4 5
6 8 11 12 9 9 9 8 5 6 6 7 6 5 4 4 4 4 4 4 4 5 5 7 7 6 6 7 7 7 6 4 4 4 5 5 5 5
5 4 4 4 5 5 5 5 5 5 6 5 5 5 5 5 5 3 4 4 5 5 5 3 4 5 6 6 6 7 7 6 6 5 5 6 6 5
7 5 6 6 7 7 6 6 5 6 6 5 5 6 6 6 5 4 4 5 6 6 5 4 3 3 3 4 8 7 6 6 5 5 4 5 6 4
7 6 7 7 7 7 7 6 6 6 5 6 6 6 6 5 5 5 5 5 6 6 5 4 3 3 5 6 4 7 6 5 4 4 4 4 6 6
5 7 7 7 7 7 7 7 7 6 5 6 6 6 5 5 5 5 5 6 5 5 5 4 4 5 6 6 4 4 7 6 4 5 4 4 5 7
6 7 7 7 7 7 7 7 7 6 6 6 6 6 5 5 6 6 5 7 6 5 6 5 5 5 3 2 3 3 3 6 7 5 4 4 4 4
7 7 7 7 7 7 7 6 6 6 6 6 6 5 5 5 6 6 6 5 5 5 5 4 3 2 3 4 5 5 4 4 6 9 9 7 3 3
7 7 7 6 6 6 6 7 7 7 6 6 6 5 5 5 5 5 5 5 5 5 4 4 3 3 3 4 5 5 5 5 4 4 4 7 9 11
Wind_Direction
219 220 220 231 225 217 205 196 205 268 282 272 275 275 278 284 285 284 284 293 300 300 302 301 303 303 303 303 304 305 305 307 306 303 302 304 308 308
218 216 227 232 235 229 220 216 207 221 261 269 263 274 283 287 288 285 281 292 295 295 295 293 294 295 297 298 297 298 300 302 299 296 297 299 302 304
231 220 232 230 226 230 226 226 225 217 254 277 266 272 272 283 296 291 287 286 286 288 290 290 290 291 292 292 291 292 295 298 298 297 298 297 298 299
236 230 239 234 231 231 228 232 234 228 238 269 280 279 271 276 280 286 290 289 282 285 289 287 287 288 289 288 287 287 289 290 291 291 293 295 298 298
232 233 240 229 240 239 236 239 241 244 233 254 274 276 279 282 286 288 286 284 285 287 288 284 284 285 286 285 283 285 286 286 285 285 288 291 294 296
234 235 240 234 239 241 243 242 242 246 245 254 268 275 277 280 278 285 295 288 288 293 290 287 286 287 286 284 281 282 284 282 281 282 285 287 290 291
243 241 242 241 240 242 246 242 240 247 251 257 268 276 277 282 278 275 284 295 288 278 292 288 287 285 283 282 278 277 280 281 279 282 284 284 286 287
246 249 250 250 250 256 261 258 246 246 252 257 265 267 271 268 272 276 283 298 295 282 291 289 278 279 275 271 273 275 275 279 282 283 282 283 285 284
241 246 256 255 255 249 265 270 264 260 256 253 261 263 268 262 263 272 267 266 270 276 289 285 281 277 275 275 277 274 275 278 284 285 285 283 284 284
241 241 247 255 250 248 252 261 262 263 262 256 253 259 260 257 248 258 264 272 275 266 240 270 280 275 284 278 279 277 276 280 285 288 286 285 284 283
249 244 244 249 259 260 255 261 269 270 267 262 264 268 272 270 262 261 262 272 282 273 220 243 276 288 285 281 285 285 284 287 288 289 287 286 284 283
258 252 251 254 264 265 252 253 266 271 270 274 275 277 275 274 265 245 238 253 269 272 229 224 265 295 294 277 278 289 293 292 293 293 293 290 286 283
262 260 255 262 266 267 262 254 262 272 266 264 268 272 274 268 260 248 235 236 248 256 237 218 254 261 263 286 289 275 277 284 295 296 299 294 289 283
258 257 257 267 269 271 269 264 270 277 267 264 268 269 270 268 260 253 246 244 245 251 244 227 240 247 263 278 282 280 274 275 280 286 292 294 293 288
259 262 268 272 275 274 270 270 272 264 256 258 261 263 258 258 257 260 258 254 260 261 251 238 238 244 249 265 274 279 288 283 270 275 284 287 285 286
271 271 274 275 270 266 272 271 255 246 250 254 260 262 259 255 253 248 256 260 269 273 258 242 234 237 254 261 268 277 276 273 281 284 290 287 276 268
272 270 266 270 267 263 261 259 252 251 255 252 257 263 261 256 255 243 247 251 258 269 274 261 245 240 244 252 265 266 270 273 272 281 287 289 279 264
272 259 260 259 261 262 262 262 254 250 250 251 255 255 257 256 257 251 247 251 260 263 264 262 260 278 282 266 239 252 260 266 273 275 274 281 287 281
263 256 257 258 259 258 257 257 259 254 248 247 251 253 253 253 253 254 252 255 260 263 261 249 241 243 264 278 263 226 240 265 275 277 269 262 275 287
249 255 259 259 259 260 259 259 260 259 251 248 250 251 248 250 254 253 250 253 261 265 264 248 235 235 246 261 266 261 239 246 260 272 280 278 277 284
259 256 257 259 260 259 260 258 257 256 253 249 249 246 242 243 251 252 250 251 257 259 259 257 249 245 255 261 272 272 263 247 245 251 265 280 291 299
263 262 261 259 260 261 260 256 256 254 250 249 249 246 241 241 247 249 251 252 251 253 260 266 255 247 240 246 265 276 284 291 278 268 259 247 239 248
264 263 263 261 260 261 258 253 252 253 248 246 246 243 239 244 245 245 248 249 247 251 257 264 259 250 253 252 261 272 280 289 295 298 291 279 261 260
Height
1498 1498 1498 1498 1498 1498 1497 1497 1496 1493 1491 1490 1490 1489 1489 1488 1487 1485 1484 1482 1481 1479 1477 1476 1474 1473 1471 1470 1468 1467 1465 1463 1462 1461 1459 1458 1457 1456
1494 1494 1494 1494 1494 1494 1493 1493 1492 1491 1488 1486 1486 1485 1484 1483 1482 1481 1479 1478 1476 1475 1473 1471 1470 1468 1466 1465 1463 1462 1460 1458 1456 1455 1454 1453 1452 1451
1490 1490 1490 1490 1490 1489 1489 1488 1488 1486 1484 1481 1481 1481 1480 1478 1477 1476 1475 1473 1471 1470 1468 1466 1465 1463 1461 1460 1458 1456 1455 1453 1451 1450 1449 1448 1447 1446
1486 1486 1486 1485 1485 1485 1484 1483 1482 1481 1480 1477 1476 1475 1474 1473 1472 1471 1469 1468 1466 1465 1463 1461 1460 1458 1456 1454 1453 1451 1449 1448 1446 1445 1444 1443 1442 1440
1481 1481 1481 1481 1480 1479 1479 1478 1477 1476 1475 1473 1471 1470 1469 1468 1466 1465 1464 1462 1461 1459 1457 1456 1454 1452 1450 1449 1447 1445 1443 1442 1441 1439 1438 1437 1436 1435
1477 1477 1476 1476 1475 1474 1474 1473 1472 1471 1469 1468 1466 1465 1464 1462 1461 1459 1457 1456 1455 1453 1451 1450 1448 1447 1445 1443 1441 1439 1438 1436 1435 1433 1432 1431 1430 1429
1472 1472 1471 1471 1470 1470 1469 1468 1467 1465 1464 1463 1461 1460 1458 1457 1455 1453 1452 1450 1448 1447 1445 1444 1442 1440 1439 1437 1435 1433 1432 1430 1429 1427 1426 1425 1424 1423
1467 1467 1466 1466 1465 1464 1463 1463 1462 1461 1459 1457 1456 1454 1453 1452 1451 1448 1446 1444 1441 1442 1439 1437 1437 1434 1433 1431 1430 1428 1426 1425 1423 1421 1420 1419 1417 1416
1462 1461 1461 1460 1460 1459 1458 1457 1456 1455 1454 1453 1450 1449 1448 1447 1445 1443 1441 1439 1437 1435 1434 1430 1430 1428 1427 1425 1424 1422 1420 1418 1417 1415 1414 1412 1411 1410
1456 1456 1455 1455 1454 1453 1452 1451 1450 1449 1448 1447 1445 1443 1442 1441 1440 1438 1436 1433 1431 1430 1428 1424 1422 1421 1420 1419 1417 1416 1414 1412 1411 1409 1407 1406 1405 1403
1451 1451 1450 1449 1449 1448 1446 1445 1443 1442 1442 1440 1439 1437 1436 1435 1434 1432 1430 1427 1424 1422 1422 1419 1416 1414 1413 1412 1411 1409 1408 1406 1405 1403 1401 1400 1398 1397
1445 1445 1444 1443 1443 1442 1441 1439 1437 1436 1435 1433 1432 1430 1429 1428 1427 1426 1424 1422 1419 1416 1415 1414 1411 1410 1406 1404 1404 1403 1402 1400 1399 1397 1395 1393 1392 1391
1439 1438 1438 1438 1437 1436 1435 1433 1431 1430 1428 1426 1424 1423 1422 1421 1420 1419 1418 1416 1414 1411 1410 1409 1406 1405 1403 1399 1397 1397 1396 1394 1392 1390 1389 1387 1386 1385
1433 1433 1432 1432 1430 1429 1428 1427 1426 1424 1422 1420 1418 1417 1415 1414 1413 1412 1411 1410 1408 1406 1405 1404 1401 1400 1398 1394 1391 1390 1389 1388 1386 1384 1383 1381 1380 1379
1428 1427 1426 1425 1424 1423 1422 1421 1420 1418 1416 1414 1412 1410 1409 1408 1407 1405 1404 1403 1401 1400 1399 1398 1396 1394 1393 1390 1387 1384 1382 1381 1380 1378 1377 1375 1374 1373
1422 1421 1420 1419 1418 1416 1415 1414 1413 1412 1410 1408 1406 1405 1403 1402 1400 1399 1398 1396 1395 1393 1393 1392 1390 1389 1387 1385 1383 1379 1378 1376 1374 1373 1371 1369 1368 1367
1415 1414 1413 1412 1411 1410 1409 1408 1406 1405 1404 1402 1400 1398 1397 1396 1394 1393 1392 1390 1389 1387 1386 1386 1385 1383 1381 1380 1377 1375 1373 1371 1370 1368 1366 1363 1362 1361
1410 1408 1406 1405 1404 1403 1402 1401 1400 1398 1397 1395 1394 1392 1391 1390 1388 1387 1386 1384 1383 1381 1381 1380 1379 1377 1375 1373 1373 1370 1368 1367 1365 1364 1361 1359 1357 1357
1403 1401 1400 1399 1398 1397 1395 1394 1393 1392 1390 1389 1387 1386 1385 1384 1382 1381 1380 1378 1377 1376 1375 1374 1373 1372 1370 1368 1366 1366 1364 1362 1361 1359 1357 1355 1353 1352
1397 1395 1394 1393 1391 1390 1389 1387 1386 1385 1383 1382 1381 1380 1379 1378 1376 1375 1374 1373 1372 1371 1370 1369 1368 1367 1366 1365 1362 1361 1361 1359 1357 1355 1353 1351 1350 1348
1390 1389 1388 1386 1385 1383 1382 1381 1379 1378 1377 1376 1375 1374 1373 1372 1371 1370 1369 1368 1367 1366 1365 1364 1363 1364 1362 1361 1358 1356 1356 1355 1353 1351 1349 1347 1345 1343
1384 1382 1381 1379 1378 1377 1375 1374 1373 1371 1370 1369 1368 1368 1367 1366 1365 1364 1363 1363 1362 1361 1360 1360 1359 1359 1358 1356 1354 1352 1351 1351 1349 1348 1346 1345 1343 1340
1377 1375 1374 1372 1371 1370 1368 1367 1366 1365 1364 1363 1362 1362 1361 1360 1360 1359 1358 1358 1357 1357 1356 1355 1354 1354 1353 1352 1351 1349 1348 1346 1345 1343 1342 1341 1340 1338